Orbital Elements at Epoch 2459000.5 (2020-May-31.0) TDB
Reference: JPL 15 (heliocentric ecliptic J2000)
Element | Value | Uncertainty (1-sigma) | Units |
e | .05868201691885537 | 4.572e-08 | |
a | 2.759133359618935 | 2.3816e-08 | au |
q | 2.597221849128398 | 1.2915e-07 | au |
i | 6.50900411737216 | 5.4351e-06 | deg |
node | 16.84823994758566 | 4.059e-05 | deg |
peri | 312.1649761157556 | 6.2421e-05 | deg |
M | 67.29203361668665 | 4.5045e-05 | deg |
tp | 2458687.590594472403 (2019-Jul-23.09059447) | 0.00020994 | TDB |
period | 1674.007753006907 4.58 | 2.1675e-05 5.934e-08 | d yr |
n | .2150527674399096 | 2.7845e-09 | deg/d |
Q | 2.921044870109471 | 2.5214e-08 | au |
|
| | Orbit Determination Parameters
Additional Information
|